Location: Wiesbaden
(50.0830°N, 8.2500°E)
Time: 16:37:50
(UTC+01:00)

ISS - Pass Details

Date: 22 January 2020
Orbit: 415 x 421 km, 51.6° (Epoch: 18 January)

Event Time Altitude Azimuth Distance (km) Brightness Sun altitude
Rises 18:22:35 0° 203° (SSW) 2,354 0.7 -12.5°
Reaches altitude 10° 18:25:09 10° 182° (S) 1,493 -0.7 -12.9°
Maximum altitude 18:27:25 17° 140° (SE) 1,141 -1.8 -13.2°
Enters shadow 18:28:17 16° 121° (ESE) 1,199 -1.9 -13.4°
